| time (UTC) | temp F | wind direction | speed knots | gust knots | rain 1hr in | rain 24hr in | rain mn in | humidity % | barometer mb |
| 20260505031523 | 50 | 188 | 0.0 | 0.0 | 0.00 | 0.00 | 0.00 | 74 | 1006.1 |
| 20260505030009 | 50 | 188 | 0.0 | 0.0 | 0.00 | 0.00 | 0.00 | 72 | 1006.1 |
| 20260505024509 | 52 | 188 | 0.0 | 0.0 | 0.00 | 0.00 | 0.00 | 71 | 1006.4 |
| 20260505023010 | 53 | 188 | 0.0 | 0.0 | 0.00 | 0.00 | 0.00 | 69 | 1006.4 |
| 20260505021509 | 54 | 188 | 0.0 | 0.0 | 0.00 | 0.00 | 0.00 | 67 | 1006.3 |
| 20260505020007 | 55 | 188 | 0.0 | 0.0 | 0.00 | 0.00 | 0.00 | 66 | 1006.2 |
| 20260505014507 | 56 | 188 | 0.0 | 0.0 | 0.00 | 0.00 | 0.00 | 64 | 1006.1 |
| 20260505013006 | 58 | 188 | 0.0 | 0.9 | 0.00 | 0.00 | 0.00 | 61 | 1006.1 |
| 20260505011505 | 59 | 188 | 0.0 | 0.0 | 0.00 | 0.00 | 0.00 | 57 | 1006.0 |
| 20260505010005 | 61 | 188 | 0.0 | 0.0 | 0.00 | 0.00 | 0.00 | 55 | 1005.9 |
| 20260505004505 | 62 | 188 | 0.0 | 0.0 | 0.00 | 0.00 | 0.00 | 51 | 1005.9 |
| 20260505003004 | 63 | 188 | 0.0 | 0.9 | 0.00 | 0.00 | 0.00 | 47 | 1005.8 |
| 20260505001504 | 64 | 188 | 0.0 | 0.0 | 0.00 | 0.00 | 0.00 | 45 | 1005.6 |
| 20260505000006 | 65 | 188 | 0.0 | 0.9 | 0.00 | 0.00 | 0.00 | 43 | 1005.5 |
| 20260504234503 | 66 | 186 | 0.0 | 1.7 | 0.00 | 0.00 | 0.00 | 43 | 1005.3 |
| 20260504233002 | 67 | 190 | 0.0 | 3.5 | 0.00 | 0.00 | 0.00 | 41 | 1005.2 |
| 20260504231502 | 67 | 188 | 0.0 | 7.0 | 0.00 | 0.00 | 0.00 | 40 | 1004.9 |
| 20260504230002 | 68 | 180 | 2.6 | 11.3 | 0.00 | 0.00 | 0.00 | 37 | 1004.7 |
| 20260504224501 | 68 | 190 | 3.5 | 9.6 | 0.00 | 0.00 | 0.00 | 36 | 1004.6 |
| 20260504223134 | 68 | 176 | 0.9 | 10.4 | 0.00 | 0.00 | 0.00 | 37 | 1004.5 |
| 20260504221559 | 68 | 200 | 0.9 | 8.7 | 0.00 | 0.00 | 0.00 | 36 | 1004.5 |
| 20260504220059 | 69 | 192 | 2.6 | 7.0 | 0.00 | 0.00 | 0.00 | 37 | 1004.6 |
| 20260504214559 | 69 | 208 | 1.7 | 8.7 | 0.00 | 0.00 | 0.00 | 37 | 1004.6 |
| 20260504213105 | 69 | 192 | 1.7 | 10.4 | 0.00 | 0.00 | 0.00 | 37 | 1004.5 |
| 20260504211600 | 70 | 170 | 4.3 | 10.4 | 0.00 | 0.00 | 0.00 | 37 | 1004.5 |
| 20260504210059 | 71 | 183 | 3.5 | 10.4 | 0.00 | 0.00 | 0.00 | 36 | 1004.6 |
| 20260504204555 | 70 | 180 | 1.7 | 13.9 | 0.00 | 0.00 | 0.00 | 38 | 1004.8 |
| 20260504203106 | 69 | 177 | 6.1 | 19.1 | 0.00 | 0.00 | 0.00 | 38 | 1004.9 |
| 20260504201556 | 68 | 210 | 3.5 | 12.2 | 0.00 | 0.00 | 0.00 | 40 | 1005.1 |
| 20260504200054 | 69 | 156 | 3.5 | 13.0 | 0.00 | 0.00 | 0.00 | 38 | 1005.1 |
| 20260504194550 | 70 | 148 | 5.2 | 13.9 | 0.00 | 0.00 | 0.00 | 38 | 1005.6 |
| 20260504193048 | 70 | 198 | 3.5 | 13.0 | 0.00 | 0.00 | 0.00 | 39 | 1005.4 |
| 20260504191554 | 69 | 166 | 2.6 | 12.2 | 0.00 | 0.00 | 0.00 | 43 | 1005.6 |
| 20260504190046 | 68 | 157 | 3.5 | 18.2 | 0.00 | 0.00 | 0.00 | 41 | 1005.7 |
| 20260504184538 | 67 | 178 | 3.5 | 12.2 | 0.00 | 0.00 | 0.00 | 43 | 1005.8 |
| 20260504183037 | 66 | 209 | 2.6 | 13.0 | 0.00 | 0.00 | 0.00 | 43 | 1005.9 |
| 20260504181542 | 66 | 133 | 0.9 | 9.6 | 0.00 | 0.00 | 0.00 | 44 | 1006.1 |
| 20260504180032 | 65 | 146 | 3.5 | 11.3 | 0.00 | 0.00 | 0.00 | 46 | 1006.0 |
| 20260504174530 | 64 | 136 | 2.6 | 13.0 | 0.00 | 0.00 | 0.00 | 45 | 1006.1 |
| 20260504173026 | 63 | 156 | 2.6 | 17.4 | 0.00 | 0.00 | 0.00 | 47 | 1006.3 |
| 20260504171524 | 62 | 197 | 4.3 | 13.9 | 0.00 | 0.00 | 0.00 | 45 | 1006.6 |
| 20260504081514 | 46 | 94 | 0.0 | 1.7 | 0.00 | 0.00 | 0.00 | 79 | 1008.7 |
| 20260504044548 | 38 | 314 | 0.0 | 1.7 | 0.00 | 0.00 | 0.00 | 83 | 1009.4 |
| 20260504043042 | 37 | 314 | 0.0 | 0.0 | 0.00 | 0.00 | 0.00 | 83 | 1009.6 |
| 20260504041539 | 37 | 314 | 0.0 | 0.9 | 0.00 | 0.00 | 0.00 | 83 | 1009.3 |
| 20260504040049 | 37 | 313 | 0.0 | 0.9 | 0.00 | 0.00 | 0.00 | 83 | 1009.4 |
| 20260504034550 | 36 | 284 | 0.0 | 0.9 | 0.00 | 0.00 | 0.00 | 84 | 1009.4 |
| 20260504033037 | 36 | 284 | 0.0 | 0.0 | 0.00 | 0.00 | 0.00 | 83 | 1009.4 |